Total_Precipitation_Accumulation
0.00 0.00 0.00 0.00 0.00 0.00 0.01 0.01 0.01 0.01 0.01 0.01 0.02 0.04 0.05 0.07 0.07 0.07 0.09 0.13 0.14 0.15 0.19 0.25 0.28 0.29 0.30 0.27 0.22 0.16 0.12 0.10 0.08 0.04 0.02 0.02 0.06 0.10 0.13 0.13 0.13 0.09 0.05
0.00 0.00 0.00 0.00 0.00 0.00 0.01 0.01 0.01 0.01 0.01 0.01 0.05 0.08 0.10 0.11 0.10 0.11 0.15 0.23 0.32 0.32 0.30 0.30 0.31 0.33 0.34 0.33 0.30 0.23 0.15 0.11 0.10 0.07 0.03 0.02 0.04 0.09 0.13 0.14 0.14 0.10 0.06
0.00 0.00 0.00 0.00 0.00 0.00 0.00 0.00 0.00 0.01 0.01 0.02 0.07 0.14 0.16 0.17 0.18 0.19 0.22 0.27 0.39 0.50 0.52 0.49 0.43 0.36 0.34 0.34 0.34 0.30 0.22 0.15 0.12 0.10 0.06 0.03 0.04 0.10 0.15 0.17 0.16 0.13 0.09
0.00 0.00 0.00 0.00 0.00 0.00 0.00 0.00 0.00 0.01 0.02 0.04 0.07 0.14 0.18 0.20 0.26 0.35 0.39 0.36 0.39 0.50 0.59 0.62 0.60 0.54 0.45 0.40 0.37 0.37 0.33 0.25 0.18 0.14 0.12 0.08 0.06 0.11 0.19 0.20 0.17 0.14 0.11
0.00 0.00 0.00 0.00 0.00 0.00 0.00 0.00 0.00 0.00 0.02 0.04 0.05 0.07 0.11 0.17 0.29 0.40 0.39 0.34 0.32 0.35 0.40 0.45 0.52 0.60 0.63 0.56 0.49 0.42 0.38 0.35 0.29 0.22 0.17 0.13 0.11 0.14 0.22 0.24 0.22 0.19 0.15
0.00 0.00 0.00 0.00 0.00 0.00 0.00 0.00 0.00 0.00 0.02 0.03 0.03 0.04 0.06 0.13 0.24 0.31 0.24 0.16 0.15 0.19 0.24 0.27 0.31 0.41 0.49 0.55 0.57 0.50 0.45 0.43 0.41 0.36 0.28 0.20 0.16 0.17 0.24 0.30 0.28 0.26 0.21
0.00 0.00 0.00 0.00 0.00 0.00 0.00 0.00 0.00 0.00 0.01 0.03 0.02 0.01 0.02 0.07 0.17 0.26 0.19 0.06 0.04 0.07 0.11 0.14 0.16 0.22 0.27 0.30 0.36 0.38 0.42 0.48 0.53 0.52 0.48 0.38 0.25 0.20 0.25 0.32 0.31 0.26 0.24
0.00 0.00 0.00 0.00 0.00 0.00 0.00 0.00 0.00 0.00 0.01 0.02 0.02 0.00 0.01 0.03 0.14 0.28 0.20 0.04 0.02 0.04 0.07 0.07 0.06 0.10 0.16 0.19 0.21 0.26 0.32 0.42 0.55 0.62 0.65 0.60 0.46 0.34 0.30 0.39 0.43 0.33 0.29
0.00 0.00 0.00 0.00 0.00 0.00 0.00 0.00 0.00 0.00 0.00 0.00 0.01 0.00 0.00 0.01 0.10 0.31 0.26 0.04 0.03 0.05 0.09 0.10 0.05 0.03 0.07 0.06 0.09 0.14 0.18 0.29 0.41 0.51 0.54 0.54 0.53 0.51 0.48 0.49 0.54 0.44 0.41
0.00 0.00 0.00 0.00 0.00 0.00 0.00 0.00 0.00 0.00 0.00 0.00 0.00 0.00 0.00 0.00 0.06 0.28 0.36 0.08 0.03 0.05 0.07 0.08 0.10 0.05 0.04 0.02 0.03 0.05 0.08 0.15 0.20 0.24 0.29 0.33 0.37 0.43 0.51 0.58 0.66 0.57 0.52
0.00 0.00 0.00 0.00 0.00 0.00 0.00 0.00 0.00 0.00 0.00 0.00 0.00 0.00 0.00 0.00 0.02 0.17 0.37 0.24 0.07 0.05 0.07 0.09 0.10 0.06 0.03 0.01 0.01 0.01 0.03 0.04 0.06 0.10 0.15 0.22 0.30 0.37 0.47 0.59 0.66 0.61 0.53
0.00 0.00 0.00 0.00 0.00 0.00 0.00 0.00 0.00 0.00 0.00 0.00 0.00 0.00 0.00 0.00 0.02 0.09 0.19 0.27 0.16 0.06 0.07 0.08 0.08 0.03 0.02 0.01 0.00 0.00 0.00 0.00 0.01 0.03 0.06 0.11 0.19 0.28 0.38 0.50 0.60 0.60 0.53
0.00 0.00 0.00 0.00 0.00 0.00 0.00 0.00 0.00 0.00 0.01 0.02 0.02 0.01 0.01 0.01 0.04 0.07 0.07 0.10 0.12 0.11 0.16 0.12 0.03 0.00 0.00 0.00 0.00 0.00 0.00 0.00 0.00 0.00 0.02 0.04 0.08 0.15 0.21 0.27 0.37 0.43 0.38
0.00 0.00 0.00 0.00 0.00 0.00 0.00 0.00 0.01 0.02 0.04 0.06 0.05 0.02 0.01 0.04 0.09 0.13 0.07 0.03 0.05 0.07 0.11 0.09 0.02 0.00 0.00 0.00 0.00 0.00 0.00 0.00 0.00 0.00 0.00 0.01 0.02 0.05 0.09 0.13 0.17 0.22 0.22
0.00 0.00 0.00 0.00 0.00 0.00 0.00 0.00 0.02 0.04 0.09 0.13 0.07 0.04 0.06 0.14 0.18 0.16 0.10 0.08 0.11 0.12 0.06 0.02 0.00 0.00 0.00 0.00 0.00 0.00 0.00 0.00 0.00 0.00 0.00 0.00 0.01 0.01 0.03 0.05 0.07 0.10 0.10
0.00 0.00 0.00 0.00 0.01 0.00 0.00 0.00 0.01 0.03 0.06 0.06 0.05 0.05 0.06 0.17 0.16 0.08 0.04 0.05 0.11 0.12 0.04 0.01 0.00 0.00 0.00 0.00 0.00 0.00 0.00 0.00 0.00 0.00 0.00 0.00 0.00 0.00 0.01 0.01 0.02 0.03 0.04
0.00 0.01 0.01 0.01 0.01 0.01 0.01 0.02 0.01 0.01 0.02 0.02 0.02 0.02 0.05 0.11 0.09 0.04 0.02 0.01 0.02 0.02 0.00 0.00 0.00 0.00 0.00 0.00 0.00 0.00 0.00 0.00 0.00 0.00 0.00 0.00 0.00 0.00 0.00 0.00 0.00 0.00 0.01
0.00 0.01 0.01 0.01 0.02 0.02 0.03 0.03 0.03 0.03 0.02 0.01 0.00 0.01 0.02 0.04 0.04 0.02 0.00 0.00 0.00 0.00 0.00 0.00 0.00 0.00 0.00 0.00 0.00 0.00 0.00 0.00 0.00 0.00 0.00 0.00 0.00 0.00 0.00 0.00 0.00 0.00 0.00
0.00 0.01 0.02 0.03 0.03 0.03 0.04 0.03 0.03 0.03 0.02 0.01 0.00 0.00 0.00 0.01 0.01 0.00 0.00 0.00 0.00 0.00 0.00 0.00 0.00 0.00 0.00 0.00 0.00 0.00 0.00 0.00 0.00 0.00 0.00 0.00 0.00 0.00 0.00 0.00 0.00 0.00 0.00
0.00 0.01 0.02 0.03 0.03 0.03 0.04 0.03 0.03 0.03 0.02 0.01 0.01 0.00 0.01 0.01 0.00 0.00 0.00 0.00 0.00 0.00 0.00 0.00 0.00 0.00 0.00 0.00 0.00 0.00 0.00 0.00 0.00 0.00 0.00 0.00 0.00 0.00 0.00 0.00 0.00 0.00 0.00
0.02 0.01 0.01 0.02 0.02 0.03 0.04 0.03 0.03 0.03 0.03 0.02 0.01 0.01 0.05 0.04 0.01 0.00 0.00 0.00 0.00 0.00 0.00 0.00 0.00 0.00 0.00 0.00 0.00 0.00 0.00 0.00 0.00 0.00 0.00 0.00 0.00 0.00 0.00 0.00 0.00 0.00 0.00
0.03 0.02 0.02 0.02 0.03 0.03 0.04 0.04 0.04 0.04 0.03 0.03 0.01 0.01 0.02 0.01 0.00 0.00 0.00 0.00 0.00 0.00 0.00 0.00 0.00 0.00 0.00 0.00 0.00 0.00 0.00 0.00 0.00 0.00 0.00 0.00 0.00 0.00 0.00 0.00 0.00 0.00 0.00
0.02 0.02 0.01 0.01 0.01 0.02 0.02 0.02 0.03 0.03 0.03 0.02 0.01 0.01 0.01 0.00 0.00 0.00 0.00 0.00 0.00 0.00 0.00 0.00 0.00 0.00 0.00 0.00 0.00 0.00 0.00 0.00 0.00 0.00 0.00 0.00 0.00 0.00 0.00 0.00 0.00 0.00 0.00
0.01 0.01 0.01 0.01 0.01 0.01 0.02 0.02 0.03 0.04 0.04 0.03 0.03 0.02 0.02 0.01 0.01 0.00 0.00 0.00 0.00 0.00 0.00 0.00 0.00 0.00 0.00 0.00 0.00 0.00 0.00 0.00 0.00 0.00 0.01 0.01 0.01 0.01 0.01 0.01 0.01 0.00 0.00
0.00 0.01 0.01 0.02 0.02 0.02 0.02 0.02 0.02 0.03 0.03 0.03 0.03 0.03 0.03 0.03 0.02 0.02 0.01 0.01 0.00 0.00 0.00 0.00 0.00 0.00 0.00 0.00 0.00 0.00 0.00 0.00 0.02 0.06 0.08 0.07 0.04 0.03 0.03 0.03 0.02 0.01 0.01
0.00 0.00 0.01 0.02 0.02 0.02 0.02 0.02 0.03 0.03 0.04 0.04 0.04 0.04 0.04 0.04 0.04 0.03 0.03 0.03 0.02 0.01 0.01 0.01 0.00 0.00 0.00 0.00 0.00 0.00 0.01 0.03 0.07 0.09 0.10 0.09 0.07 0.04 0.03 0.03 0.02 0.02 0.02